CMP225 SVMI-MPTO

Flight info

Callsign CMP225
Flight time 1h 55m
Altitude 34000
Route MARES1 MARES A315 ATONO G427 PBL UP650 TBG
Aircraft B38M/M-SDE1FGHILORVWXY/HB1

Departure

Time 2026-04-29 00:38
Airport Maiquetía Simón Bolívar International Airport (SVMI)

Arrival

Time 2026-04-29 02:33
Airport Tocumen International Airport (MPTO)
Time Latitude Longitude Altitude Speed Heading
2026-04-29 00:14 10.59821 -67.00782 240 ft 0 kts 176°
2026-04-29 00:30 10.59822 -67.00782 240 ft 1 kts 176°
2026-04-29 00:31 10.59846 -67.00783 240 ft 4 kts 177°
2026-04-29 00:31 10.59873 -67.00783 240 ft 4 kts 186°
2026-04-29 00:31 10.59898 -67.00776 240 ft 4 kts 216°
2026-04-29 00:31 10.59911 -67.00757 240 ft 3 kts 266°
2026-04-29 00:32 10.59911 -67.00754 240 ft 2 kts 268°
2026-04-29 00:34 10.59910 -67.00778 240 ft 6 kts 268°
2026-04-29 00:34 10.59909 -67.00840 240 ft 11 kts 268°
2026-04-29 00:35 10.59906 -67.00929 241 ft 14 kts 268°
2026-04-29 00:35 10.59902 -67.01044 242 ft 18 kts 268°
2026-04-29 00:35 10.59897 -67.01172 244 ft 17 kts 268°
2026-04-29 00:35 10.59956 -67.01241 244 ft 15 kts 359°
2026-04-29 00:36 10.60051 -67.01244 244 ft 13 kts 358°
2026-04-29 00:36 10.60133 -67.01247 243 ft 11 kts 358°
2026-04-29 00:36 10.60234 -67.01251 241 ft 18 kts 358°
2026-04-29 00:36 10.60355 -67.01248 243 ft 15 kts 26°
2026-04-29 00:37 10.60382 -67.01183 243 ft 0 kts 88°
2026-04-29 00:37 10.60383 -67.01175 243 ft 3 kts 88°
2026-04-29 00:37 10.60386 -67.01073 241 ft 45 kts 88°
2026-04-29 00:37 10.60404 -67.00499 234 ft 118 kts 88°
2026-04-29 00:38 10.60438 -66.99443 271 ft 174 kts 88°
2026-04-29 00:38 10.60491 -66.98152 991 ft 179 kts 88°
2026-04-29 00:38 10.60637 -66.96907 1827 ft 182 kts 78°
2026-04-29 00:38 10.61241 -66.95699 2090 ft 205 kts 49°
2026-04-29 00:39 10.62342 -66.94677 2160 ft 225 kts 32°
2026-04-29 00:39 10.63893 -66.94370 2181 ft 236 kts 351°
2026-04-29 00:39 10.65379 -66.95126 2618 ft 246 kts 323°
2026-04-29 00:39 10.66593 -66.96433 3344 ft 266 kts 302°
2026-04-29 00:40 10.67431 -66.98123 3921 ft 275 kts 297°
2026-04-29 00:40 10.68302 -66.99903 4496 ft 280 kts 297°
2026-04-29 00:40 10.68923 -67.01765 5213 ft 278 kts 274°
2026-04-29 00:40 10.68737 -67.03706 6103 ft 285 kts 256°
2026-04-29 00:41 10.68300 -67.05716 6854 ft 297 kts 258°
2026-04-29 00:41 10.67881 -67.07781 7767 ft 299 kts 258°
2026-04-29 00:41 10.67464 -67.09879 8629 ft 306 kts 258°
2026-04-29 00:41 10.67045 -67.12021 9494 ft 311 kts 258°
2026-04-29 00:42 10.66623 -67.14198 10269 ft 318 kts 258°
2026-04-29 00:42 10.66188 -67.16464 10732 ft 336 kts 258°
2026-04-29 00:42 10.65730 -67.18869 11143 ft 353 kts 258°
2026-04-29 00:42 10.65252 -67.21365 11698 ft 363 kts 258°
2026-04-29 00:43 10.64766 -67.23885 12531 ft 364 kts 258°
2026-04-29 00:43 10.64276 -67.26421 13253 ft 368 kts 258°
2026-04-29 00:43 10.63781 -67.28983 13963 ft 371 kts 258°
2026-04-29 00:43 10.63280 -67.31572 14592 ft 374 kts 258°
2026-04-29 00:44 10.62776 -67.34174 15235 ft 377 kts 258°
2026-04-29 00:44 10.62268 -67.36797 15865 ft 379 kts 258°
2026-04-29 00:44 10.61757 -67.39436 16477 ft 382 kts 258°
2026-04-29 00:44 10.61241 -67.42095 17086 ft 384 kts 258°
2026-04-29 00:45 10.60723 -67.44763 17655 ft 387 kts 258°
2026-04-29 00:45 10.60201 -67.47455 18228 ft 389 kts 258°
2026-04-29 00:45 10.59676 -67.50155 18721 ft 391 kts 257°
2026-04-29 00:45 10.59156 -67.52835 19186 ft 393 kts 257°
2026-04-29 00:46 10.58624 -67.55565 19659 ft 395 kts 257°
2026-04-29 00:46 10.58090 -67.58311 20128 ft 397 kts 257°
2026-04-29 00:46 10.57554 -67.61066 20579 ft 399 kts 257°
2026-04-29 00:46 10.57014 -67.63838 21023 ft 401 kts 257°
2026-04-29 00:47 10.56470 -67.66628 21469 ft 403 kts 257°
2026-04-29 00:47 10.55923 -67.69435 21898 ft 406 kts 257°
2026-04-29 00:47 10.55372 -67.72260 22325 ft 408 kts 257°
2026-04-29 00:47 10.54817 -67.75105 22749 ft 411 kts 257°
2026-04-29 00:48 10.54259 -67.77961 23157 ft 413 kts 257°
2026-04-29 00:48 10.53697 -67.80836 23554 ft 416 kts 256°
2026-04-29 00:48 10.53133 -67.83725 23897 ft 418 kts 257°
2026-04-29 00:48 10.52567 -67.86621 24254 ft 419 kts 257°
2026-04-29 00:49 10.51998 -67.89530 24605 ft 421 kts 257°
2026-04-29 00:49 10.51426 -67.92451 24949 ft 422 kts 257°
2026-04-29 00:49 10.50851 -67.95384 25300 ft 424 kts 257°
2026-04-29 00:49 10.50274 -67.98328 25653 ft 425 kts 257°
2026-04-29 00:50 10.49695 -68.01283 25989 ft 427 kts 257°
2026-04-29 00:50 10.49114 -68.04244 26324 ft 429 kts 257°
2026-04-29 00:50 10.48539 -68.07223 26662 ft 430 kts 259°
2026-04-29 00:50 10.48183 -68.10251 26991 ft 433 kts 262°
2026-04-29 00:51 10.47836 -68.13297 27316 ft 434 kts 262°
2026-04-29 00:51 10.47477 -68.16309 27634 ft 436 kts 262°
2026-04-29 00:51 10.47105 -68.19376 27952 ft 437 kts 261°
2026-04-29 00:51 10.46729 -68.22444 28263 ft 439 kts 261°
2026-04-29 00:52 10.46351 -68.25531 28559 ft 441 kts 261°
2026-04-29 00:52 10.45970 -68.28624 28881 ft 442 kts 261°
2026-04-29 00:52 10.45587 -68.31742 29178 ft 444 kts 261°
2026-04-29 00:52 10.45333 -68.33809 29376 ft 445 kts 261°
2026-04-29 00:53 10.44948 -68.36937 29668 ft 447 kts 261°
2026-04-29 00:53 10.44561 -68.40074 29966 ft 448 kts 261°
2026-04-29 00:53 10.44173 -68.43229 30214 ft 450 kts 262°
2026-04-29 00:53 10.43783 -68.46389 30463 ft 451 kts 262°
2026-04-29 00:54 10.43391 -68.49562 30724 ft 452 kts 262°
2026-04-29 00:54 10.42998 -68.52743 30978 ft 453 kts 262°
2026-04-29 00:54 10.42605 -68.55920 31220 ft 454 kts 262°
2026-04-29 00:54 10.42215 -68.59068 31464 ft 455 kts 262°
2026-04-29 00:55 10.41819 -68.62265 31695 ft 457 kts 262°
2026-04-29 00:55 10.41422 -68.65467 31922 ft 458 kts 262°
2026-04-29 00:55 10.41018 -68.68720 32183 ft 458 kts 262°
2026-04-29 00:55 10.40625 -68.71886 32476 ft 457 kts 263°
2026-04-29 00:56 10.40226 -68.75086 32786 ft 456 kts 263°
2026-04-29 00:56 10.39829 -68.78280 33108 ft 455 kts 263°
2026-04-29 00:56 10.39433 -68.81463 33436 ft 454 kts 263°
2026-04-29 00:56 10.39037 -68.84640 33780 ft 452 kts 263°
2026-04-29 00:57 10.38642 -68.87803 33981 ft 452 kts 263°
2026-04-29 00:57 10.37855 -68.94099 33969 ft 447 kts 263°
2026-04-29 00:58 10.37070 -69.00381 33988 ft 448 kts 263°
2026-04-29 00:58 10.36283 -69.06659 33981 ft 448 kts 263°
2026-04-29 00:59 10.35495 -69.12938 33983 ft 448 kts 263°
2026-04-29 00:59 10.34706 -69.19221 33979 ft 449 kts 263°
2026-04-29 01:00 10.33914 -69.25507 33981 ft 449 kts 263°
2026-04-29 01:00 10.33121 -69.31793 33985 ft 448 kts 263°
2026-04-29 01:01 10.32333 -69.38036 33979 ft 449 kts 263°
2026-04-29 01:01 10.31539 -69.44316 33976 ft 449 kts 263°
2026-04-29 01:02 10.30743 -69.50614 33975 ft 449 kts 263°
2026-04-29 01:02 10.29949 -69.56907 33973 ft 448 kts 263°
2026-04-29 01:03 10.29161 -69.63146 33976 ft 448 kts 263°
2026-04-29 01:03 10.28366 -69.69424 33972 ft 448 kts 263°
2026-04-29 01:04 10.27571 -69.75704 33958 ft 448 kts 263°
2026-04-29 01:04 10.26773 -69.81980 33956 ft 448 kts 262°
2026-04-29 01:05 10.25976 -69.88253 33957 ft 448 kts 262°
2026-04-29 01:05 10.25176 -69.94536 33952 ft 448 kts 262°
2026-04-29 01:06 10.24377 -70.00805 33949 ft 448 kts 262°
2026-04-29 01:06 10.23580 -70.07045 33947 ft 448 kts 262°
2026-04-29 01:07 10.22778 -70.13317 33948 ft 448 kts 262°
2026-04-29 01:07 10.21976 -70.19582 33948 ft 448 kts 262°
2026-04-29 01:08 10.21171 -70.25847 33947 ft 447 kts 262°
2026-04-29 01:08 10.20365 -70.32119 33947 ft 447 kts 262°
2026-04-29 01:09 10.19559 -70.38380 33946 ft 447 kts 262°
2026-04-29 01:09 10.18752 -70.44639 33946 ft 447 kts 262°
2026-04-29 01:10 10.17944 -70.50891 33946 ft 447 kts 262°
2026-04-29 01:10 10.17135 -70.57152 33945 ft 447 kts 262°
2026-04-29 01:11 10.16329 -70.63369 33943 ft 447 kts 262°
2026-04-29 01:11 10.15518 -70.69623 33944 ft 447 kts 262°
2026-04-29 01:12 10.14705 -70.75878 33935 ft 447 kts 262°
2026-04-29 01:12 10.13892 -70.82132 33931 ft 447 kts 262°
2026-04-29 01:13 10.13075 -70.88398 33926 ft 447 kts 262°
2026-04-29 01:13 10.12259 -70.94643 33918 ft 447 kts 262°
2026-04-29 01:14 10.11441 -71.00894 33911 ft 447 kts 262°
2026-04-29 01:14 10.10623 -71.07139 33908 ft 447 kts 262°
2026-04-29 01:15 10.09803 -71.13388 33897 ft 447 kts 262°
2026-04-29 01:15 10.08982 -71.19638 33897 ft 446 kts 262°
2026-04-29 01:16 10.08165 -71.25845 33893 ft 446 kts 262°
2026-04-29 01:16 10.07343 -71.32090 33888 ft 446 kts 262°
2026-04-29 01:17 10.06465 -71.38330 33891 ft 446 kts 261°
2026-04-29 01:17 10.05492 -71.44556 33890 ft 446 kts 261°
2026-04-29 01:18 10.04529 -71.50776 33891 ft 446 kts 261°
2026-04-29 01:18 10.03087 -71.60078 33893 ft 446 kts 261°
2026-04-29 01:19 10.02120 -71.66301 33895 ft 446 kts 261°
2026-04-29 01:19 10.01149 -71.72526 33894 ft 447 kts 261°
2026-04-29 01:20 10.00168 -71.78749 33896 ft 447 kts 261°
2026-04-29 01:20 9.99189 -71.84971 33899 ft 447 kts 261°
2026-04-29 01:21 9.98207 -71.91203 33897 ft 447 kts 261°
2026-04-29 01:21 9.97226 -71.97425 33898 ft 447 kts 261°
2026-04-29 01:22 9.96243 -72.03645 33900 ft 447 kts 261°
2026-04-29 01:22 9.95259 -72.09868 33899 ft 447 kts 260°
2026-04-29 01:23 9.94280 -72.16044 33903 ft 447 kts 260°
2026-04-29 01:23 9.93293 -72.22271 33904 ft 446 kts 260°
2026-04-29 01:24 9.92306 -72.28489 33900 ft 446 kts 260°
2026-04-29 01:24 9.91316 -72.34715 33908 ft 446 kts 260°
2026-04-29 01:25 9.90327 -72.40933 33914 ft 446 kts 260°
2026-04-29 01:25 9.89337 -72.47147 33919 ft 447 kts 260°
2026-04-29 01:26 9.88343 -72.53377 33923 ft 447 kts 260°
2026-04-29 01:26 9.87355 -72.59562 33931 ft 447 kts 260°
2026-04-29 01:27 9.86361 -72.65780 33944 ft 447 kts 260°
2026-04-29 01:27 9.85364 -72.72007 33955 ft 447 kts 260°
2026-04-29 01:28 9.84366 -72.78234 33963 ft 447 kts 260°
2026-04-29 01:28 9.83367 -72.84456 33968 ft 447 kts 260°
2026-04-29 01:29 9.82367 -72.90686 33962 ft 448 kts 260°
2026-04-29 01:29 9.81361 -72.96923 33968 ft 448 kts 260°
2026-04-29 01:30 9.80333 -73.03111 33966 ft 448 kts 260°
2026-04-29 01:30 9.79298 -73.09344 33960 ft 448 kts 260°
2026-04-29 01:31 9.78264 -73.15574 33959 ft 448 kts 260°
2026-04-29 01:31 9.77227 -73.21813 33954 ft 448 kts 260°
2026-04-29 01:32 9.76191 -73.28042 33929 ft 448 kts 260°
2026-04-29 01:32 9.75151 -73.34278 33929 ft 448 kts 260°
2026-04-29 01:33 9.74113 -73.40502 33912 ft 448 kts 260°
2026-04-29 01:33 9.73072 -73.46735 33908 ft 448 kts 260°
2026-04-29 01:34 9.72031 -73.52962 33902 ft 448 kts 260°
2026-04-29 01:34 9.70990 -73.59185 33891 ft 448 kts 260°
2026-04-29 01:35 9.69953 -73.65375 33890 ft 448 kts 260°
2026-04-29 01:35 9.68912 -73.71605 33886 ft 448 kts 260°
2026-04-29 01:36 9.67878 -73.77832 33889 ft 448 kts 260°
2026-04-29 01:36 9.66843 -73.84059 33888 ft 448 kts 260°
2026-04-29 01:37 9.65807 -73.90282 33882 ft 447 kts 260°
2026-04-29 01:37 9.64772 -73.96495 33886 ft 447 kts 260°
2026-04-29 01:38 9.63743 -74.02663 33888 ft 446 kts 260°
2026-04-29 01:38 9.62707 -74.08869 33885 ft 446 kts 260°
2026-04-29 01:39 9.61671 -74.15064 33886 ft 445 kts 260°
2026-04-29 01:39 9.60636 -74.21248 33884 ft 445 kts 260°
2026-04-29 01:40 9.59775 -74.26383 33886 ft 444 kts 260°
2026-04-29 01:40 9.58741 -74.32551 33886 ft 444 kts 260°
2026-04-29 01:41 9.57536 -74.39727 33883 ft 444 kts 259°
2026-04-29 01:41 9.56668 -74.44891 33885 ft 444 kts 259°
2026-04-29 01:42 9.55631 -74.51051 33886 ft 443 kts 259°
2026-04-29 01:42 9.54594 -74.57207 33883 ft 443 kts 259°
2026-04-29 01:43 9.53556 -74.63363 33886 ft 443 kts 259°
2026-04-29 01:43 9.52524 -74.69477 33882 ft 443 kts 259°
2026-04-29 01:44 9.51485 -74.75623 33888 ft 443 kts 259°
2026-04-29 01:44 9.50445 -74.81772 33887 ft 443 kts 259°
2026-04-29 01:45 9.49358 -74.87922 33887 ft 443 kts 258°
2026-04-29 01:45 9.48254 -74.94051 33887 ft 443 kts 258°
2026-04-29 01:46 9.47150 -75.00188 33882 ft 443 kts 258°
2026-04-29 01:46 9.46045 -75.06322 33875 ft 443 kts 258°
2026-04-29 01:47 9.44937 -75.12462 33872 ft 443 kts 258°
2026-04-29 01:47 9.43830 -75.18597 33866 ft 443 kts 258°
2026-04-29 01:48 9.42721 -75.24734 33860 ft 443 kts 258°
2026-04-29 01:48 9.41611 -75.30867 33856 ft 443 kts 258°
2026-04-29 01:49 9.40500 -75.37005 33858 ft 443 kts 258°
2026-04-29 01:49 9.39388 -75.43142 33866 ft 443 kts 258°
2026-04-29 01:50 9.38275 -75.49273 33872 ft 443 kts 258°
2026-04-29 01:50 9.37168 -75.55367 33877 ft 443 kts 258°
2026-04-29 01:51 9.36053 -75.61501 33885 ft 443 kts 258°
2026-04-29 01:51 9.34936 -75.67643 33885 ft 444 kts 258°
2026-04-29 01:52 9.33815 -75.73793 33889 ft 444 kts 257°
2026-04-29 01:52 9.32693 -75.79947 33888 ft 444 kts 257°
2026-04-29 01:53 9.31569 -75.86102 33892 ft 444 kts 257°
2026-04-29 01:53 9.30446 -75.92250 33892 ft 444 kts 257°
2026-04-29 01:54 9.29326 -75.98372 33888 ft 444 kts 257°
2026-04-29 01:54 9.28200 -76.04524 33890 ft 444 kts 257°
2026-04-29 01:55 9.27072 -76.10676 33887 ft 444 kts 257°
2026-04-29 01:55 9.25944 -76.16829 33890 ft 444 kts 257°
2026-04-29 01:56 9.24814 -76.22982 33887 ft 444 kts 257°
2026-04-29 01:56 9.23683 -76.29131 33887 ft 444 kts 257°
2026-04-29 01:57 9.22551 -76.35286 33888 ft 444 kts 257°
2026-04-29 01:57 9.21426 -76.41394 33887 ft 444 kts 257°
2026-04-29 01:58 9.20284 -76.47585 33890 ft 444 kts 257°
2026-04-29 01:58 9.19156 -76.53699 33889 ft 444 kts 257°
2026-04-29 01:59 9.18021 -76.59844 33888 ft 444 kts 257°
2026-04-29 01:59 9.16884 -76.65989 33891 ft 444 kts 257°
2026-04-29 02:00 9.15748 -76.72128 33888 ft 444 kts 257°
2026-04-29 02:00 9.14610 -76.78274 33887 ft 444 kts 257°
2026-04-29 02:01 9.13470 -76.84420 33890 ft 444 kts 257°
2026-04-29 02:01 9.12328 -76.90569 33894 ft 444 kts 256°
2026-04-29 02:02 9.11186 -76.96714 33889 ft 444 kts 256°
2026-04-29 02:02 9.10044 -77.02854 33902 ft 444 kts 256°
2026-04-29 02:03 9.08901 -77.08997 33898 ft 444 kts 256°
2026-04-29 02:03 9.07764 -77.15101 33899 ft 444 kts 256°
2026-04-29 02:04 9.06617 -77.21249 33903 ft 444 kts 256°
2026-04-29 02:04 9.05470 -77.27394 33901 ft 444 kts 256°
2026-04-29 02:05 9.04323 -77.33533 33901 ft 444 kts 256°
2026-04-29 02:05 9.03176 -77.39669 33903 ft 444 kts 256°
2026-04-29 02:06 9.02433 -77.45890 33914 ft 446 kts 260°
2026-04-29 02:06 9.01771 -77.52125 33906 ft 446 kts 260°
2026-04-29 02:07 9.01086 -77.58356 33910 ft 446 kts 260°
2026-04-29 02:07 9.00399 -77.64593 33912 ft 446 kts 260°
2026-04-29 02:08 8.99713 -77.70804 33914 ft 447 kts 260°
2026-04-29 02:08 8.99370 -77.73907 33471 ft 443 kts 260°
2026-04-29 02:08 8.99025 -77.77040 32356 ft 452 kts 261°
2026-04-29 02:09 8.98673 -77.80213 31584 ft 454 kts 261°
2026-04-29 02:09 8.98323 -77.83373 31125 ft 448 kts 261°
2026-04-29 02:09 8.97977 -77.86485 30632 ft 443 kts 261°
2026-04-29 02:09 8.97634 -77.89582 30052 ft 442 kts 262°
2026-04-29 02:10 8.97291 -77.92664 29357 ft 441 kts 262°
2026-04-29 02:10 8.96949 -77.95744 28731 ft 439 kts 262°
2026-04-29 02:10 8.96609 -77.98801 28180 ft 435 kts 262°
2026-04-29 02:10 8.96271 -78.01831 27633 ft 433 kts 262°
2026-04-29 02:11 8.95935 -78.04848 27073 ft 430 kts 262°
2026-04-29 02:11 8.95605 -78.07812 26528 ft 428 kts 262°
2026-04-29 02:11 8.95267 -78.10840 25973 ft 427 kts 262°
2026-04-29 02:11 8.94934 -78.13820 25426 ft 426 kts 262°
2026-04-29 02:12 8.94607 -78.16751 24893 ft 425 kts 262°
2026-04-29 02:12 8.94275 -78.19719 24355 ft 424 kts 262°
2026-04-29 02:12 8.93943 -78.22676 23822 ft 423 kts 262°
2026-04-29 02:12 8.93612 -78.25634 23246 ft 423 kts 262°
2026-04-29 02:13 8.93281 -78.28587 22657 ft 422 kts 262°
2026-04-29 02:13 8.92952 -78.31524 22134 ft 419 kts 262°
2026-04-29 02:13 8.92625 -78.34437 21629 ft 416 kts 262°
2026-04-29 02:13 8.92300 -78.37337 21127 ft 413 kts 263°
2026-04-29 02:14 8.91976 -78.40220 20637 ft 411 kts 263°
2026-04-29 02:14 8.91654 -78.43081 20157 ft 409 kts 263°
2026-04-29 02:14 8.91333 -78.45932 19676 ft 407 kts 263°
2026-04-29 02:14 8.91013 -78.48773 19202 ft 405 kts 263°
2026-04-29 02:15 8.90694 -78.51599 18737 ft 404 kts 263°
2026-04-29 02:15 8.90377 -78.54414 18278 ft 402 kts 263°
2026-04-29 02:15 8.90059 -78.57226 17761 ft 401 kts 263°
2026-04-29 02:15 8.89744 -78.60017 17277 ft 398 kts 263°
2026-04-29 02:16 8.89431 -78.62787 16830 ft 395 kts 263°
2026-04-29 02:16 8.89120 -78.65535 16393 ft 392 kts 263°
2026-04-29 02:16 8.88810 -78.68275 15952 ft 390 kts 263°
2026-04-29 02:16 8.88503 -78.70987 15512 ft 387 kts 263°
2026-04-29 02:17 8.88198 -78.73684 15086 ft 385 kts 263°
2026-04-29 02:17 8.87894 -78.76363 14655 ft 383 kts 263°
2026-04-29 02:17 8.87595 -78.78997 14232 ft 381 kts 263°
2026-04-29 02:17 8.87294 -78.81652 13808 ft 379 kts 263°
2026-04-29 02:18 8.86994 -78.84291 13337 ft 377 kts 264°
2026-04-29 02:18 8.86695 -78.86924 12887 ft 375 kts 264°
2026-04-29 02:18 8.86399 -78.89531 12460 ft 372 kts 264°
2026-04-29 02:18 8.86104 -78.92119 12041 ft 366 kts 264°
2026-04-29 02:19 8.85818 -78.94631 11636 ft 353 kts 264°
2026-04-29 02:19 8.85544 -78.97040 11247 ft 340 kts 264°
2026-04-29 02:19 8.85275 -78.99390 10890 ft 329 kts 264°
2026-04-29 02:19 8.85020 -79.01627 10744 ft 311 kts 264°
2026-04-29 02:20 8.84779 -79.03738 10611 ft 294 kts 265°
2026-04-29 02:20 8.84552 -79.05735 10476 ft 278 kts 265°
2026-04-29 02:20 8.84333 -79.07643 10346 ft 273 kts 265°
2026-04-29 02:20 8.84110 -79.09607 10202 ft 287 kts 265°
2026-04-29 02:21 8.83879 -79.11629 10058 ft 293 kts 265°
2026-04-29 02:21 8.83644 -79.13683 9841 ft 295 kts 265°
2026-04-29 02:21 8.83409 -79.15737 9503 ft 293 kts 265°
2026-04-29 02:21 8.83179 -79.17751 9179 ft 291 kts 265°
2026-04-29 02:22 8.82947 -79.19776 8865 ft 289 kts 265°
2026-04-29 02:22 8.82717 -79.21785 8614 ft 287 kts 265°
2026-04-29 02:22 8.82487 -79.23790 8324 ft 286 kts 265°
2026-04-29 02:22 8.82258 -79.25785 8031 ft 285 kts 265°
2026-04-29 02:23 8.82030 -79.27767 7731 ft 283 kts 265°
2026-04-29 02:23 8.81805 -79.29739 7430 ft 281 kts 265°
2026-04-29 02:23 8.81579 -79.31701 7119 ft 281 kts 265°
2026-04-29 02:23 8.81355 -79.33654 6831 ft 279 kts 265°
2026-04-29 02:24 8.81132 -79.35595 6538 ft 277 kts 265°
2026-04-29 02:24 8.80911 -79.37519 6239 ft 275 kts 266°
2026-04-29 02:24 8.80690 -79.39435 5923 ft 274 kts 266°
2026-04-29 02:25 8.80325 -79.42605 5416 ft 272 kts 266°
2026-04-29 02:25 8.80107 -79.44506 5122 ft 272 kts 266°
2026-04-29 02:25 8.79890 -79.46399 4832 ft 271 kts 267°
2026-04-29 02:25 8.79888 -79.48875 4461 ft 258 kts 287°
2026-04-29 02:26 8.80693 -79.50364 4271 ft 232 kts 322°
2026-04-29 02:26 8.81572 -79.50936 4175 ft 216 kts 341°
2026-04-29 02:26 8.82942 -79.51360 4088 ft 198 kts 345°
2026-04-29 02:26 8.84239 -79.51784 4027 ft 199 kts 345°
2026-04-29 02:27 8.85550 -79.52045 3989 ft 182 kts
2026-04-29 02:27 8.86717 -79.51732 3842 ft 170 kts 28°
2026-04-29 02:27 8.87610 -79.51000 3711 ft 166 kts 48°
2026-04-29 02:27 8.88171 -79.50012 3612 ft 159 kts 65°
2026-04-29 02:28 8.88576 -79.49014 3492 ft 148 kts 50°
2026-04-29 02:28 8.89297 -79.48316 3336 ft 143 kts 35°
2026-04-29 02:28 8.90104 -79.47732 3159 ft 143 kts 31°
2026-04-29 02:28 8.90945 -79.47195 2986 ft 143 kts 30°
2026-04-29 02:29 8.91801 -79.46682 2819 ft 143 kts 29°
2026-04-29 02:29 8.92658 -79.46181 2633 ft 142 kts 29°
2026-04-29 02:29 8.93524 -79.45681 2455 ft 145 kts 28°
2026-04-29 02:29 8.94400 -79.45179 2281 ft 144 kts 29°
2026-04-29 02:30 8.95267 -79.44682 2085 ft 143 kts 28°
2026-04-29 02:30 8.96136 -79.44186 1919 ft 144 kts 28°
2026-04-29 02:30 8.96999 -79.43693 1696 ft 141 kts 26°
2026-04-29 02:30 8.97860 -79.43200 1521 ft 144 kts 26°
2026-04-29 02:31 8.98734 -79.42701 1333 ft 144 kts 27°
2026-04-29 02:31 8.99607 -79.42203 1148 ft 145 kts 27°
2026-04-29 02:31 9.00484 -79.41704 983 ft 148 kts 27°
2026-04-29 02:31 9.01384 -79.41188 786 ft 150 kts 28°
2026-04-29 02:32 9.02289 -79.40670 627 ft 150 kts 27°
2026-04-29 02:32 9.03204 -79.40147 397 ft 151 kts 26°
2026-04-29 02:32 9.04117 -79.39628 237 ft 151 kts 26°
2026-04-29 02:32 9.05031 -79.39103 153 ft 144 kts 26°
2026-04-29 02:33 9.05780 -79.38682 147 ft 91 kts 30°
2026-04-29 02:33 9.06155 -79.38468 147 ft 33 kts 29°
2026-04-29 02:33 9.06333 -79.38377 146 ft 24 kts
2026-04-29 02:33 9.06476 -79.38376 145 ft 15 kts 358°
2026-04-29 02:34 9.06561 -79.38376 145 ft 7 kts
2026-04-29 02:34 9.06612 -79.38377 145 ft 8 kts 359°
2026-04-29 02:34 9.06664 -79.38352 145 ft 9 kts 31°
2026-04-29 02:34 9.06729 -79.38318 145 ft 12 kts 26°
2026-04-29 02:35 9.06811 -79.38287 146 ft 13 kts 354°
2026-04-29 02:35 9.06865 -79.38357 146 ft 14 kts 298°
2026-04-29 02:35 9.06899 -79.38422 146 ft 10 kts 298°
2026-04-29 02:35 9.06956 -79.38458 146 ft 11 kts 10°
2026-04-29 02:36 9.07009 -79.38446 146 ft 5 kts 340°
2026-04-29 02:36 9.07035 -79.38473 146 ft 1 kts 300°
2026-04-29 02:36 9.07042 -79.38485 146 ft 3 kts 301°
2026-04-29 02:36 9.07049 -79.38497 146 ft 3 kts 301°
2026-04-29 02:37 9.07053 -79.38503 146 ft 0 kts 301°